[[{"header":{"parameterUnit":"m.s-1","parameterCategory":1,"la1":30.2991,"la2":30.254,"lo1":-89.0895,"lo2":-89.0444,"dy":0.0017,"dx":0.0017,"nx":28,"ny":28,"refTime":"2024-04-16T09:00:00:Z","depth":0,"parameterNumber":2,"parameterNumberName":"U-component_of_WINDS"},"data":[0,0,0,0,0,0,0,0,0,0,0,0,0,0,0,0,0,0,0,0,0,0,0,0,0,0,0,0,0,0,0,0,0,0,0,0,0,0,0,0,0,0,0,0,0,0,0,0,0,0,0,0,0,0,0,0,0,0,-2.8968,-2.8968,0,-2.901,-2.9011,-2.9011,-2.8991,-2.899,-2.8989,-2.8988,-2.9034,-2.9036,-2.9038,0,0,0,0,0,0,0,0,0,0,0,0,0,-2.8871,-2.8873,-2.8967,-2.8968,-2.8969,-2.901,-2.9011,-2.9011,-2.8991,-2.899,-2.8989,-2.8988,-2.9033,-2.9036,-2.9038,0,0,0,0,0,0,0,0,0,0,0,0,0,-2.8913,-2.8873,-2.8967,-2.8964,-2.8964,-2.901,-2.9011,-2.9011,-2.8992,-2.899,-2.8988,-2.8987,-2.9032,-2.9036,-2.9039,-2.9092,0,0,-2.9049,-2.905,0,0,0,0,0,0,0,0,-2.8911,-2.8917,-2.8964,-2.8964,-2.8964,-2.8994,-2.8993,-2.9038,-2.8992,-2.8981,-2.8988,-2.8986,-2.9022,-2.9026,-2.9038,-2.9094,-2.9096,-2.9049,-2.9051,-2.9053,-2.9054,0,0,0,0,0,0,0,-2.8908,-2.8915,-2.8984,-2.8964,-2.8965,-2.896,-2.8965,-2.9002,-2.901,-2.8982,-2.8981,-2.8986,-2.9022,-2.9034,-2.9039,-2.9097,-2.9049,-2.9052,-2.9054,-2.9056,-2.9198,-2.92,0,0,0,0,0,0,-2.8905,-2.8913,-2.8983,-2.8986,-2.8933,-2.8963,-2.8968,-2.8986,-2.901,-2.9012,-2.8987,-2.8985,-2.903,-2.9035,-2.904,-2.9103,-2.9053,-2.9056,-2.9058,-2.9197,-2.9199,-2.9201,0,0,0,0,0,0,-2.8903,-2.8911,-2.8981,-2.8949,-2.8957,-2.8967,-2.8987,-2.8988,-2.9,-2.9014,-2.9015,-2.8998,-2.9028,-2.9035,-2.9079,-2.9105,-2.9057,-2.906,-2.9195,-2.9197,-2.92,-2.923,0,0,0,0,0,0,-2.89,-2.8911,-2.893,-2.8949,-2.8959,-2.9019,-2.8988,-2.899,-2.9006,-2.9003,-2.9025,-2.9027,-2.9028,-2.9074,-2.9082,-2.9108,-2.9063,-2.9192,-2.9196,-2.9199,-2.9227,-2.9234,-2.924,0,0,0,0,0,-2.8897,-2.8938,-2.8932,-2.894,-2.8984,-2.902,-2.9026,-2.9026,-2.9008,-2.9028,-2.9037,-2.9026,-2.9101,-2.9079,-2.9088,-2.9115,-2.9191,-2.9195,-2.9199,-2.9224,-2.9233,-2.9239,0,0,0,0,0,0,-2.8923,-2.894,-2.8933,-2.8982,-2.9,-2.9017,-2.9042,-2.9035,-2.9058,-2.9055,-2.9054,-2.9059,-2.9104,-2.9114,-2.909,-2.9168,-2.9143,-2.9149,-2.9159,-2.9167,-2.9173,-2.917,-2.9066,0,0,0,0,0,-2.8934,-2.8962,-2.8976,-2.9017,-2.9026,-2.9033,-2.9049,-2.9047,-2.9066,-2.9073,-2.9085,-2.9104,-2.9132,-2.915,-2.9177,-2.9229,-2.9233,-2.9252,-2.9258,-2.9263,-2.9268,-2.9296,-2.9305,-2.9214,-2.9214,-2.9214,0,0,-2.8958,-2.8971,-2.8988,-2.9023,-2.9036,-2.9065,-2.9039,-2.9071,-2.9093,-2.9079,-2.912,-2.9129,-2.9151,-2.9199,-2.922,-2.9208,-2.9295,-2.9269,-2.9272,-2.9275,-2.9301,-2.931,-2.9318,-2.9217,-2.9216,-2.9216,0,0,-2.9016,-2.9029,-2.9064,-2.9078,-2.9098,-2.9102,-2.9111,-2.913,-2.9135,-2.9176,-2.9166,-2.9192,-2.924,-2.9255,-2.927,-2.9333,-2.9324,-2.9342,-2.9374,-2.9401,-2.9408,-2.9415,-2.9437,-2.9445,-2.9347,-2.9347,-2.9347,0,-2.9043,-2.9085,-2.9084,-2.9116,-2.9131,-2.9119,-2.9155,-2.9169,-2.9198,-2.9209,-2.9195,-2.9254,-2.9268,-2.9319,-2.9334,-2.9346,-2.9356,-2.9339,-2.9407,-2.9414,-2.942,-2.9441,-2.9449,-2.9349,-2.9349,-2.9349,-2.9349,0,-2.9117,-2.9147,-2.9173,-2.92,-2.9218,-2.9253,-2.9256,-2.9276,-2.9272,-2.9278,-2.932,-2.9336,-2.9365,-2.9377,-2.9375,-2.9428,-2.942,-2.9407,-2.9382,-2.943,-2.945,-2.9458,-2.9352,-2.9351,-2.9351,-2.935,0,0,-2.9193,-2.9217,-2.9227,-2.9239,-2.926,-2.9284,-2.9317,-2.9345,-2.9361,-2.9381,-2.941,-2.945,-2.9438,-2.9454,-2.9453,-2.9477,-2.9526,-2.9461,-2.9462,-2.9472,-2.9585,-2.9594,-2.9603,-2.952,-2.9522,-2.9523,-2.9583,0,-2.9252,-2.9309,-2.9309,-2.9363,-2.939,-2.9379,-2.9408,-2.9425,-2.9431,-2.9456,-2.9463,-2.9491,-2.9474,-2.9483,-2.9506,-2.9515,-2.9549,-2.9511,-2.9547,-2.9548,-2.9541,-2.9614,-2.9624,-2.9679,-2.9591,-2.9592,-2.9593,0,-2.9328,-2.9349,-2.9406,-2.9423,-2.9434,-2.946,-2.9485,-2.9509,-2.9528,-2.9531,-2.9548,-2.9544,-2.9579,-2.9553,-2.9601,-2.9575,-2.959,-2.9597,-2.9599,-2.9602,-2.9573,-2.9618,-2.9697,-2.9705,-2.9605,-2.9604,-2.9603,0,-2.9377,-2.942,-2.9459,-2.9469,-2.949,-2.9509,-2.9519,-2.9536,-2.9552,-2.9574,-2.9585,-2.9612,-2.9626,-2.9647,-2.965,-2.9631,-2.9698,-2.9673,-2.9701,-2.9701,-2.9715,-2.9714,-2.9797,-2.9726,-2.9726,-2.9726,-2.9726,0,-2.9442,-2.9477,-2.9481,-2.9505,-2.9543,-2.9542,-2.9581,-2.9589,-2.9605,-2.963,-2.9623,-2.9647,-2.965,-2.9675,-2.9678,-2.9717,-2.9724,-2.9727,-2.9728,-2.9728,-2.9727,-2.9737,-2.9733,-2.9728,-2.9728,-2.9727,-2.9727,0,-2.9503,-2.9507,-2.9548,-2.9564,-2.9569,-2.9597,-2.9611,-2.9634,-2.9639,-2.9672,-2.968,-2.9689,-2.9718,-2.9723,-2.9758,-2.976,-2.9807,-2.9803,-2.98,-2.9799,-2.9827,-2.9824,-2.9919,-2.9931,-2.9853,-2.9853,-2.9854,0,-2.9544,-2.957,-2.9589,-2.9605,-2.9615,-2.9642,-2.9658,-2.9658,-2.9676,-2.9699,-2.9719,-2.9748,-2.9771,-2.9818,-2.9828,-2.9855,-2.9852,-2.9883,-2.9856,-2.9855,-2.9852,-2.985,-2.9852,-2.9889,-2.9889,-2.989,-2.9891,0,-2.9617,-2.9617,-2.964,-2.9664,-2.9684,-2.9703,-2.9721,-2.9735,-2.9738,-2.9758,-2.9787,-2.9805,-2.984,-2.9869,-2.9895,-2.9906,-2.9899,-2.9899,-2.9907,-2.9907,-2.9904,-2.9905,-2.9813,-2.9897,-2.9896,-2.9896,-2.9895,-2.9895,-2.9669,-2.9691,-2.9707,-2.9733,-2.9747,-2.9764,-2.9786,-2.9794,-2.9818,-2.9846,-2.9845,-2.9877,-2.9895,-2.993,-2.9942,-2.9968,-2.9958,-2.997,-2.9973,-2.9975,-2.9978,-2.99,-2.9973,-2.9973,-2.9973,-2.9973,-2.9972,0,-2.9741,-2.975,-2.9774,-2.9799,-2.982,-2.981,-2.983,-2.9848,-2.9876,-2.9893,-2.9915,-2.9949,-2.9976,-2.9988,-3.0015,-3.0033,-3.0031,-3.004,-3.0039,-3.0041,-2.9985,-2.9975,-3.0042,-3.0042,-3.0042,-3.0042,-3.0042,-3.0042,-2.9781,-2.9818,-2.982,-2.9864,-2.9873,-2.9904,-2.9915,-2.9931,-2.9944,-2.9982,-3.0004,-3.0011,-3.0026,-3.0054,-3.0079,-3.0082,-3.0092,-3.0103,-3.0105,-3.0052,-3.0045,-3.0038,-3.0029,-3.0106,-3.0106,-3.0158,-3.0159,-3.0159]},{"header":{"parameterUnit":"m.s-1","parameterCategory":1,"la1":30.2991,"la2":30.254,"lo1":-89.0895,"lo2":-89.0444,"dy":0.0017,"dx":0.0017,"nx":28,"ny":28,"refTime":"2024-04-16T09:00:00:Z","depth":0,"parameterNumber":3,"parameterNumberName":"V-component_of_WINDS"},"data":[0,0,0,0,0,0,0,0,0,0,0,0,0,0,0,0,0,0,0,0,0,0,0,0,0,0,0,0,0,0,0,0,0,0,0,0,0,0,0,0,0,0,0,0,0,0,0,0,0,0,0,0,0,0,0,0,0,0,3.569,3.5689,0,3.5605,3.5604,3.5603,3.5501,3.5499,3.5498,3.5496,3.5408,3.5408,3.5407,0,0,0,0,0,0,0,0,0,0,0,0,0,3.576,3.576,3.569,3.5689,3.5688,3.5606,3.5604,3.5603,3.5501,3.5499,3.5497,3.5495,3.5409,3.5408,3.5407,0,0,0,0,0,0,0,0,0,0,0,0,0,3.5708,3.576,3.569,3.5627,3.562,3.5606,3.5604,3.5603,3.5502,3.5499,3.5497,3.5495,3.5409,3.5408,3.5407,3.5447,0,0,3.5403,3.5402,0,0,0,0,0,0,0,0,3.5712,3.5706,3.5637,3.5631,3.5624,3.5561,3.5597,3.5551,3.5502,3.5547,3.5496,3.5493,3.5461,3.5455,3.5445,3.5443,3.5439,3.5403,3.5402,3.5401,3.5401,0,0,0,0,0,0,0,3.5715,3.5709,3.5656,3.5636,3.5628,3.5602,3.5592,3.5588,3.5518,3.5543,3.5535,3.5526,3.5457,3.5446,3.5442,3.5438,3.5403,3.5401,3.5401,3.54,3.5462,3.5465,0,0,0,0,0,0,3.5729,3.5713,3.5659,3.5654,3.5663,3.5603,3.5592,3.5584,3.5518,3.5506,3.5529,3.5522,3.545,3.5444,3.5439,3.548,3.5401,3.54,3.5399,3.546,3.5463,3.5465,0,0,0,0,0,0,3.5731,3.5725,3.5662,3.5681,3.5671,3.5604,3.5596,3.5583,3.5573,3.5508,3.5494,3.5531,3.5447,3.544,3.5445,3.5476,3.54,3.5398,3.5457,3.5461,3.5464,3.5566,0,0,0,0,0,0,3.5733,3.5726,3.5741,3.5682,3.5671,3.5672,3.5598,3.5583,3.5571,3.5561,3.5506,3.5494,3.5445,3.5448,3.5444,3.5473,3.5397,3.5454,3.5459,3.5463,3.5559,3.5572,3.5584,0,0,0,0,0,3.5736,3.5773,3.5743,3.5737,3.5688,3.5674,3.5667,3.561,3.5574,3.5588,3.5546,3.5496,3.5473,3.5449,3.5444,3.5473,3.5452,3.5457,3.5463,3.5554,3.557,3.5583,0,0,0,0,0,0,3.5838,3.5765,3.573,3.5749,3.5719,3.5657,3.5673,3.5629,3.5607,3.5599,3.5529,3.5517,3.553,3.5502,3.5476,3.5508,3.5455,3.546,3.5526,3.5541,3.5553,3.5559,3.5396,0,0,0,0,0,3.5863,3.5858,3.5793,3.5817,3.5803,3.5741,3.5733,3.5691,3.5656,3.5642,3.5601,3.5568,3.5553,3.5545,3.5528,3.5554,3.554,3.5571,3.5584,3.5594,3.5599,3.561,3.5623,3.5483,3.5483,3.5483,0,0,3.5914,3.5873,3.5874,3.5836,3.5808,3.5803,3.5731,3.5729,3.5725,3.5642,3.5644,3.5612,3.5571,3.5587,3.5592,3.5563,3.5634,3.5601,3.561,3.5609,3.5617,3.563,3.5642,3.5487,3.5486,3.5486,0,0,3.6005,3.5974,3.599,3.5962,3.592,3.5878,3.5882,3.5826,3.5802,3.5803,3.574,3.5733,3.5709,3.5682,3.5666,3.5745,3.5698,3.5741,3.5805,3.5816,3.5827,3.5836,3.5864,3.5875,3.5746,3.5746,3.5747,0,3.6075,3.6066,3.6004,3.6006,3.5991,3.5915,3.593,3.5906,3.586,3.5851,3.582,3.5788,3.5755,3.5762,3.5782,3.5771,3.5772,3.5748,3.583,3.5839,3.5847,3.5873,3.5884,3.5752,3.5751,3.5751,3.575,0,3.6153,3.6148,3.6165,3.6123,3.6109,3.6118,3.6056,3.605,3.6009,3.597,3.5971,3.5929,3.5901,3.59,3.586,3.5901,3.5885,3.5844,3.5789,3.5867,3.589,3.5899,3.576,3.5758,3.5756,3.5755,0,0,3.6308,3.623,3.6237,3.6217,3.6163,3.6157,3.6162,3.6135,3.6131,3.6101,3.6102,3.6083,3.6044,3.6025,3.5981,3.5991,3.6056,3.5947,3.5945,3.5969,3.6098,3.613,3.6143,3.6024,3.6025,3.6026,3.6101,0,3.6389,3.6394,3.6337,3.6356,3.635,3.6277,3.6281,3.6248,3.6211,3.62,3.6159,3.6146,3.6095,3.6083,3.609,3.6047,3.6081,3.604,3.6024,3.6024,3.6037,3.6155,3.619,3.6263,3.611,3.6111,3.6113,0,3.6486,3.6462,3.6481,3.6425,3.642,3.6425,3.6395,3.6385,3.6346,3.6318,3.6297,3.6246,3.6245,3.6193,3.6191,3.6165,3.6154,3.6132,3.6133,3.613,3.6074,3.6156,3.6284,3.6296,3.6126,3.6125,3.6124,0,3.6598,3.6569,3.6577,3.6561,3.6496,3.6501,3.6474,3.6432,3.6419,3.6393,3.6384,3.6357,3.6343,3.6323,3.6267,3.6234,3.627,3.6214,3.6247,3.6249,3.6259,3.6259,3.6389,3.6252,3.6251,3.6251,3.6251,0,3.6695,3.671,3.6626,3.6631,3.6644,3.6578,3.6593,3.6558,3.6521,3.6517,3.6452,3.645,3.6374,3.6363,3.6318,3.6323,3.6317,3.6294,3.6282,3.63,3.6303,3.6293,3.6287,3.6254,3.6253,3.6253,3.6252,0,3.6823,3.6767,3.6771,3.6709,3.6693,3.6706,3.6652,3.6654,3.6612,3.6608,3.6603,3.6537,3.652,3.6461,3.643,3.64,3.6418,3.6395,3.6432,3.6424,3.6461,3.6459,3.6589,3.6603,3.6457,3.6458,3.646,0,3.689,3.6899,3.6838,3.6831,3.6807,3.6796,3.6782,3.6717,3.6705,3.666,3.6666,3.6644,3.6623,3.6599,3.6548,3.6523,3.6499,3.6546,3.6495,3.6512,3.65,3.65,3.6501,3.6558,3.656,3.6561,3.6563,0,3.7014,3.6986,3.6969,3.6942,3.6928,3.6903,3.6875,3.6873,3.6799,3.6789,3.6771,3.6754,3.6722,3.67,3.6667,3.6637,3.6588,3.6579,3.6585,3.6605,3.6626,3.6615,3.6463,3.6576,3.6575,3.6574,3.6573,3.6573,3.7114,3.7118,3.7076,3.7059,3.703,3.7005,3.7003,3.6961,3.6945,3.6913,3.6875,3.6861,3.6819,3.6769,3.6744,3.6731,3.6704,3.6714,3.6716,3.672,3.6728,3.6627,3.6725,3.6724,3.6724,3.6723,3.6723,0,3.7235,3.7204,3.7189,3.7151,3.7137,3.7091,3.7057,3.7048,3.7037,3.7003,3.6983,3.6961,3.694,3.6886,3.6859,3.686,3.6836,3.6855,3.6855,3.6848,3.6754,3.6751,3.6874,3.6874,3.6874,3.6874,3.6874,3.6874,3.7297,3.7302,3.7268,3.7258,3.7226,3.7213,3.7197,3.7173,3.7145,3.7124,3.7106,3.7071,3.7028,3.6997,3.6975,3.6959,3.6952,3.6979,3.6957,3.687,3.6855,3.6842,3.6839,3.6978,3.6978,3.7052,3.7052,3.7053]}]]